Time,TemperatureF,DewpointF,PressureIn,WindDirection,WindDirectionDegrees,WindSpeedMPH,WindSpeedGustMPH,Humidity,HourlyPrecipIn,Conditions,Clouds,dailyrainin,SoftwareType,DateUTC
2013-09-26 00:06:00,49.0,48.0,30.14,West,269,0.0,0.0,96,0.00,,,0.00,weatherlink.com 1.10,2013-09-26 07:06:00,
2013-09-26 00:21:00,48.2,47.0,30.14,West,269,0.0,0.0,96,0.00,,,0.00,weatherlink.com 1.10,2013-09-26 07:21:00,
2013-09-26 00:36:00,47.5,47.0,30.14,West,269,0.0,0.0,96,0.00,,,0.00,weatherlink.com 1.10,2013-09-26 07:36:00,
2013-09-26 00:51:00,46.9,46.0,30.14,West,269,0.0,0.0,96,0.00,,,0.00,weatherlink.com 1.10,2013-09-26 07:51:00,
2013-09-26 01:06:00,46.7,46.0,30.14,West,269,0.0,0.0,97,0.00,,,0.00,weatherlink.com 1.10,2013-09-26 08:06:00,
2013-09-26 01:21:00,46.4,46.0,30.14,West,269,0.0,0.0,97,0.00,,,0.00,weatherlink.com 1.10,2013-09-26 08:21:00,
2013-09-26 01:36:00,46.5,46.0,30.15,WNW,288,0.0,0.0,97,0.00,,,0.00,weatherlink.com 1.10,2013-09-26 08:36:00,
2013-09-26 01:51:00,46.1,45.0,30.15,WNW,288,0.0,0.0,97,0.00,,,0.00,weatherlink.com 1.10,2013-09-26 08:51:00,
2013-09-26 02:06:00,45.5,45.0,30.15,WNW,288,0.0,0.0,97,0.00,,,0.00,weatherlink.com 1.10,2013-09-26 09:06:00,
2013-09-26 02:21:00,45.3,45.0,30.15,WNW,288,0.0,0.0,97,0.00,,,0.00,weatherlink.com 1.10,2013-09-26 09:21:00,
2013-09-26 02:36:00,45.4,45.0,30.15,WNW,288,0.0,0.0,97,0.00,,,0.00,weatherlink.com 1.10,2013-09-26 09:36:00,
2013-09-26 02:51:00,45.7,45.0,30.15,WNW,288,0.0,0.0,97,0.00,,,0.00,weatherlink.com 1.10,2013-09-26 09:51:00,
2013-09-26 03:06:00,46.3,46.0,30.15,WNW,288,0.0,0.0,97,0.00,,,0.00,weatherlink.com 1.10,2013-09-26 10:06:00,
2013-09-26 03:21:00,47.0,46.0,30.15,WNW,288,0.0,0.0,97,0.00,,,0.00,weatherlink.com 1.10,2013-09-26 10:21:00,
2013-09-26 03:36:00,47.1,46.0,30.15,WNW,288,0.0,0.0,97,0.00,,,0.00,weatherlink.com 1.10,2013-09-26 10:36:00,
2013-09-26 03:51:00,47.2,46.0,30.15,WNW,288,0.0,0.0,97,0.00,,,0.00,weatherlink.com 1.10,2013-09-26 10:51:00,
2013-09-26 04:06:00,47.1,46.0,30.15,WNW,288,0.0,0.0,97,0.00,,,0.00,weatherlink.com 1.10,2013-09-26 11:06:00,
2013-09-26 04:21:00,47.1,46.0,30.15,WNW,288,0.0,0.0,97,0.00,,,0.00,weatherlink.com 1.10,2013-09-26 11:21:00,
2013-09-26 04:36:00,47.0,46.0,30.15,WNW,288,0.0,0.0,97,0.00,,,0.00,weatherlink.com 1.10,2013-09-26 11:36:00,
2013-09-26 04:51:00,47.0,46.0,30.15,WNW,288,0.0,0.0,97,0.00,,,0.00,weatherlink.com 1.10,2013-09-26 11:51:00,
2013-09-26 05:06:00,47.1,46.0,30.15,WNW,288,0.0,0.0,97,0.00,,,0.00,weatherlink.com 1.10,2013-09-26 12:06:00,
2013-09-26 05:21:00,47.2,46.0,30.16,WNW,288,0.0,0.0,97,0.00,,,0.00,weatherlink.com 1.10,2013-09-26 12:21:00,
2013-09-26 05:36:00,47.0,46.0,30.16,WNW,288,0.0,0.0,97,0.00,,,0.00,weatherlink.com 1.10,2013-09-26 12:36:00,
2013-09-26 05:52:00,47.2,46.0,30.16,WNW,288,0.0,0.0,97,0.00,,,0.00,weatherlink.com 1.10,2013-09-26 12:52:00,
2013-09-26 06:07:00,46.5,46.0,30.16,WNW,288,0.0,0.0,97,0.00,,,0.00,weatherlink.com 1.10,2013-09-26 13:07:00,
2013-09-26 06:22:00,46.1,45.0,30.16,WNW,288,0.0,0.0,97,0.00,,,0.00,weatherlink.com 1.10,2013-09-26 13:22:00,
2013-09-26 06:37:00,46.4,46.0,30.16,WNW,288,0.0,0.0,97,0.00,,,0.00,weatherlink.com 1.10,2013-09-26 13:37:00,
2013-09-26 06:52:00,46.7,46.0,30.16,WNW,288,0.0,0.0,97,0.00,,,0.00,weatherlink.com 1.10,2013-09-26 13:52:00,
2013-09-26 07:07:00,46.8,46.0,30.17,WNW,288,0.0,0.0,97,0.00,,,0.00,weatherlink.com 1.10,2013-09-26 14:07:00,
2013-09-26 07:22:00,47.1,46.0,30.17,North,1,0.0,0.0,97,0.00,,,0.00,weatherlink.com 1.10,2013-09-26 14:22:00,
2013-09-26 07:37:00,47.2,46.0,30.18,North,1,0.0,0.0,97,0.00,,,0.00,weatherlink.com 1.10,2013-09-26 14:37:00,
2013-09-26 07:52:00,47.5,47.0,30.18,WSW,242,0.0,0.0,97,0.00,,,0.00,weatherlink.com 1.10,2013-09-26 14:52:00,
2013-09-26 08:07:00,47.4,47.0,30.18,WSW,242,0.0,0.0,97,0.00,,,0.00,weatherlink.com 1.10,2013-09-26 15:07:00,
2013-09-26 08:22:00,47.6,47.0,30.18,SE,132,0.0,0.0,97,0.00,,,0.00,weatherlink.com 1.10,2013-09-26 15:22:00,
2013-09-26 08:37:00,47.4,47.0,30.19,SE,137,0.0,1.0,97,0.00,,,0.00,weatherlink.com 1.10,2013-09-26 15:37:00,
2013-09-26 08:52:00,47.5,47.0,30.18,WNW,288,1.0,1.0,97,0.00,,,0.00,weatherlink.com 1.10,2013-09-26 15:52:00,
2013-09-26 09:07:00,47.4,47.0,30.20,SSW,210,0.0,2.0,97,0.00,,,0.00,weatherlink.com 1.10,2013-09-26 16:07:00,
2013-09-26 09:22:00,47.5,47.0,30.20,SSE,149,0.0,0.0,97,0.00,,,0.00,weatherlink.com 1.10,2013-09-26 16:22:00,
2013-09-26 09:37:00,49.5,49.0,30.20,SSE,149,0.0,1.0,98,0.00,,,0.00,weatherlink.com 1.10,2013-09-26 16:37:00,
2013-09-26 10:07:00,53.0,51.0,30.21,SSW,207,0.0,1.0,92,0.00,,,0.00,weatherlink.com 1.10,2013-09-26 17:07:00,
2013-09-26 10:22:00,53.8,50.0,30.21,NNE,33,0.0,1.0,86,0.00,,,0.00,weatherlink.com 1.10,2013-09-26 17:22:00,
2013-09-26 10:37:00,56.4,51.0,30.21,West,260,0.0,3.0,82,0.00,,,0.00,weatherlink.com 1.10,2013-09-26 17:37:00,
2013-09-26 10:52:00,57.1,51.0,30.21,NW,317,0.0,2.0,80,0.00,,,0.00,weatherlink.com 1.10,2013-09-26 17:52:00,
2013-09-26 11:07:00,59.6,52.0,30.21,NE,44,0.0,2.0,75,0.00,,,0.00,weatherlink.com 1.10,2013-09-26 18:07:00,
2013-09-26 11:22:00,60.5,51.0,30.20,NE,44,1.0,2.0,71,0.00,,,0.00,weatherlink.com 1.10,2013-09-26 18:22:00,
2013-09-26 11:52:00,62.4,51.0,30.21,WNW,299,1.0,3.0,66,0.00,,,0.00,weatherlink.com 1.10,2013-09-26 18:52:00,
2013-09-26 12:07:00,62.5,50.0,30.20,NE,51,2.0,5.0,65,0.00,,,0.00,weatherlink.com 1.10,2013-09-26 19:07:00,
2013-09-26 12:22:00,62.2,50.0,30.20,ENE,68,1.0,4.0,65,0.00,,,0.00,weatherlink.com 1.10,2013-09-26 19:22:00,
2013-09-26 12:37:00,62.0,50.0,30.20,SSW,205,0.0,3.0,65,0.00,,,0.00,weatherlink.com 1.10,2013-09-26 19:37:00,
2013-09-26 12:52:00,62.6,50.0,30.20,NNW,345,0.0,3.0,63,0.00,,,0.00,weatherlink.com 1.10,2013-09-26 19:52:00,
2013-09-26 13:07:00,63.1,47.0,30.20,North,354,0.0,2.0,57,0.00,,,0.00,weatherlink.com 1.10,2013-09-26 20:07:00,
2013-09-26 13:22:00,63.5,46.0,30.20,NE,37,1.0,5.0,53,0.00,,,0.00,weatherlink.com 1.10,2013-09-26 20:22:00,
2013-09-26 13:38:00,65.6,50.0,30.20,East,94,0.0,2.0,57,0.00,,,0.00,weatherlink.com 1.10,2013-09-26 20:38:00,
2013-09-26 13:53:00,64.2,48.0,30.20,West,271,0.0,3.0,57,0.00,,,0.00,weatherlink.com 1.10,2013-09-26 20:53:00,
2013-09-26 14:08:00,65.3,48.0,30.19,ESE,122,0.0,3.0,54,0.00,,,0.00,weatherlink.com 1.10,2013-09-26 21:08:00,
2013-09-26 14:23:00,66.2,48.0,30.19,ESE,110,0.0,0.0,53,0.00,,,0.00,weatherlink.com 1.10,2013-09-26 21:23:00,
2013-09-26 14:38:00,65.5,48.0,30.19,WSW,240,0.0,3.0,53,0.00,,,0.00,weatherlink.com 1.10,2013-09-26 21:38:00,
2013-09-26 14:53:00,65.8,48.0,30.19,NW,318,0.0,1.0,53,0.00,,,0.00,weatherlink.com 1.10,2013-09-26 21:53:00,
2013-09-26 15:08:00,66.2,49.0,30.19,NE,36,0.0,2.0,55,0.00,,,0.00,weatherlink.com 1.10,2013-09-26 22:08:00,
2013-09-26 15:23:00,67.1,51.0,30.18,East,98,0.0,2.0,57,0.00,,,0.00,weatherlink.com 1.10,2013-09-26 22:23:00,
2013-09-26 15:38:00,67.7,51.0,30.18,SSE,153,0.0,0.0,55,0.00,,,0.00,weatherlink.com 1.10,2013-09-26 22:38:00,
2013-09-26 15:53:00,66.8,49.0,30.19,SE,143,0.0,0.0,53,0.00,,,0.00,weatherlink.com 1.10,2013-09-26 22:53:00,
2013-09-26 16:08:00,65.7,48.0,30.19,ENE,78,0.0,0.0,54,0.00,,,0.00,weatherlink.com 1.10,2013-09-26 23:08:00,
2013-09-26 16:23:00,65.4,49.0,30.20,NNE,26,0.0,0.0,55,0.00,,,0.00,weatherlink.com 1.10,2013-09-26 23:23:00,
2013-09-26 16:38:00,64.9,50.0,30.20,NNW,332,0.0,0.0,58,0.00,,,0.00,weatherlink.com 1.10,2013-09-26 23:38:00,
2013-09-26 16:53:00,63.0,54.0,30.20,West,259,0.0,0.0,72,0.06,,,0.06,weatherlink.com 1.10,2013-09-26 23:53:00,
2013-09-26 17:23:00,55.6,52.0,30.20,SE,134,0.0,0.0,86,0.19,,,0.19,weatherlink.com 1.10,2013-09-27 00:23:00,
2013-09-26 17:38:00,55.0,52.0,30.20,SE,134,0.0,0.0,90,0.19,,,0.19,weatherlink.com 1.10,2013-09-27 00:38:00,
2013-09-26 17:53:00,55.0,53.0,30.20,SE,134,0.0,0.0,91,0.11,,,0.19,weatherlink.com 1.10,2013-09-27 00:53:00,
2013-09-26 18:08:00,54.3,52.0,30.21,SE,134,0.0,0.0,92,0.00,,,0.19,weatherlink.com 1.10,2013-09-27 01:08:00,
2013-09-26 18:23:00,54.6,53.0,30.21,NW,316,0.0,0.0,94,0.00,,,0.19,weatherlink.com 1.10,2013-09-27 01:23:00,
2013-09-26 18:38:00,54.1,53.0,30.21,NW,316,0.0,0.0,94,0.00,,,0.19,weatherlink.com 1.10,2013-09-27 01:38:00,
2013-09-26 18:53:00,53.4,52.0,30.22,NW,316,0.0,0.0,94,0.00,,,0.19,weatherlink.com 1.10,2013-09-27 01:53:00,
2013-09-26 19:08:00,52.6,51.0,30.22,NW,316,0.0,0.0,94,0.00,,,0.19,weatherlink.com 1.10,2013-09-27 02:08:00,
2013-09-26 19:23:00,52.0,51.0,30.22,WNW,294,0.0,0.0,95,0.00,,,0.19,weatherlink.com 1.10,2013-09-27 02:23:00,
2013-09-26 19:38:00,51.5,50.0,30.23,WNW,294,0.0,0.0,95,0.00,,,0.19,weatherlink.com 1.10,2013-09-27 02:38:00,
2013-09-26 19:53:00,51.2,50.0,30.23,WNW,294,0.0,0.0,96,0.00,,,0.19,weatherlink.com 1.10,2013-09-27 02:53:00,
2013-09-26 20:08:00,50.3,49.0,30.23,WNW,294,0.0,0.0,95,0.00,,,0.19,weatherlink.com 1.10,2013-09-27 03:08:00,
2013-09-26 20:23:00,50.0,49.0,30.24,WNW,294,0.0,0.0,96,0.00,,,0.19,weatherlink.com 1.10,2013-09-27 03:23:00,
2013-09-26 20:38:00,49.4,48.0,30.24,WNW,294,0.0,0.0,96,0.00,,,0.19,weatherlink.com 1.10,2013-09-27 03:38:00,
2013-09-26 20:53:00,49.4,48.0,30.24,WNW,294,0.0,0.0,96,0.00,,,0.19,weatherlink.com 1.10,2013-09-27 03:53:00,
2013-09-26 21:08:00,49.4,49.0,30.25,NNE,19,0.0,0.0,97,0.00,,,0.19,weatherlink.com 1.10,2013-09-27 04:08:00,
2013-09-26 21:23:00,49.5,48.0,30.25,NNE,29,0.0,0.0,96,0.00,,,0.19,weatherlink.com 1.10,2013-09-27 04:23:00,
2013-09-26 21:38:00,48.8,48.0,30.26,NNE,29,0.0,0.0,96,0.00,,,0.19,weatherlink.com 1.10,2013-09-27 04:38:00,
2013-09-26 21:53:00,48.5,48.0,30.26,NNE,29,0.0,0.0,97,0.00,,,0.19,weatherlink.com 1.10,2013-09-27 04:53:00,
2013-09-26 22:08:00,48.6,48.0,30.26,NNE,29,0.0,0.0,97,0.00,,,0.19,weatherlink.com 1.10,2013-09-27 05:08:00,
2013-09-26 22:23:00,48.1,47.0,30.26,NNE,29,0.0,0.0,97,0.00,,,0.19,weatherlink.com 1.10,2013-09-27 05:23:00,
2013-09-26 22:38:00,47.7,47.0,30.26,NNE,29,0.0,0.0,97,0.00,,,0.19,weatherlink.com 1.10,2013-09-27 05:38:00,
2013-09-26 22:53:00,47.3,47.0,30.26,West,279,0.0,0.0,97,0.00,,,0.19,weatherlink.com 1.10,2013-09-27 05:53:00,
2013-09-26 23:08:00,47.3,47.0,30.27,West,280,0.0,0.0,97,0.00,,,0.19,weatherlink.com 1.10,2013-09-27 06:08:00,
2013-09-26 23:23:00,47.2,46.0,30.27,West,279,0.0,0.0,97,0.00,,,0.19,weatherlink.com 1.10,2013-09-27 06:23:00,
2013-09-26 23:38:00,47.1,46.0,30.27,West,280,0.0,0.0,97,0.00,,,0.19,weatherlink.com 1.10,2013-09-27 06:38:00,
2013-09-26 23:53:00,46.7,46.0,30.28,West,279,0.0,0.0,97,0.00,,,0.19,weatherlink.com 1.10,2013-09-27 06:53:00,